Saint Francisville, IL

7:41 AM CST on January 18, 2017 (GMT -0600)
Mount Carmel Municipal

Weather History for KAJG - January, 2014

Change the Weather History Date:

Sunday, January 12, 2014

  Actual Average (KLWV) Record (KLWV)
Temperature  
Mean Temperature 39 °F -  
Max Temperature 48 °F 35 °F 66 °F (2005)
Min Temperature 30 °F 20 °F -8 °F (1997)
Degree Days  
Heating Degree Days 26    
Moisture  
Dew Point 32 °F    
Average Humidity 78    
Maximum Humidity 100    
Minimum Humidity 61    
Precipitation  
Precipitation 0.03 in - - ()
Sea Level Pressure  
Sea Level Pressure 29.93 in    
Wind  
Wind Speed 7 mph (South)    
Max Wind Speed 20 mph    
Max Gust Speed 26 mph    
Visibility 10 miles    
Events      
Averages and records for this station are not official NWS values.
T = Trace of Precipitation, MM = Missing Value Source: NWS Daily Summary

Daily Weather History Graph

Daily Weather History Graph

Search for Another Location

Airport or City:

Trip Planner

Search our weather history database for the weather conditions in past years. The results will help you decide how hot, cold, wet, or windy it might be!

Date:

Astronomy

Jan. 12, 2014 Rise Set
Actual Time 7:08 AM CST 4:50 PM CST
Civil Twilight 6:38 AM CST 5:19 PM CST
Nautical Twilight 6:06 AM CST 5:52 PM CST
Astronomical Twilight 5:34 AM CST 6:24 PM CST
Moon 2:18 PM CST (1/12) 4:06 AM CST (1/12)
Length of Visible Light 10h 41m
Length of Day
9h 42m
Waxing Gibbous, 90% of the Moon is Illuminated
Jan 12
Waxing Gibbous
Jan 15
Full
Jan 23
Last Quarter
Jan 30
New
Feb 6
First Quarter

Hourly Weather History & Observations

Time (CST) Temp. Windchill Dew Point Humidity Pressure Visibility Wind Dir Wind Speed Gust Speed Precip Events Conditions
12:15 AM 33.8 °F 28.6 °F 32.0 °F 93% 29.89 in 10.0 mi West 5.8 mph - N/A   Clear
12:35 AM 32.0 °F 24.8 °F 30.2 °F 93% 29.90 in 10.0 mi West 8.1 mph - N/A   Clear
12:55 AM 33.8 °F - 32.0 °F 93% 29.91 in 10.0 mi Calm Calm - N/A   Clear
1:15 AM 32.0 °F - 30.2 °F 93% 29.92 in 10.0 mi Calm Calm - N/A   Clear
1:35 AM 32.0 °F - 30.2 °F 93% 29.93 in 10.0 mi Calm Calm - N/A   Clear
1:55 AM 32.0 °F - 30.2 °F 93% 29.94 in 10.0 mi Calm Calm - N/A   Clear
2:15 AM 32.0 °F - 30.2 °F 93% 29.94 in 10.0 mi Calm Calm - N/A   Clear
2:35 AM 32.0 °F - 30.2 °F 93% 29.94 in 10.0 mi Calm Calm - N/A   Clear
2:55 AM 32.0 °F 23.6 °F 30.2 °F 93% 29.96 in 10.0 mi WSW 10.4 mph - N/A   Clear
3:15 AM 32.0 °F - 30.2 °F 93% 29.96 in 10.0 mi Calm Calm - 0.01 in   Clear
3:35 AM 32.0 °F - 30.2 °F 93% 29.96 in 10.0 mi Calm Calm - 0.01 in   Clear
3:55 AM 30.2 °F - 28.4 °F 93% 29.96 in 10.0 mi Calm Calm - 0.01 in   Clear
4:15 AM 30.2 °F - 28.4 °F 93% 29.96 in 10.0 mi Calm Calm - N/A   Clear
4:35 AM 30.2 °F - 28.4 °F 93% 29.96 in 7.0 mi Calm Calm - N/A   Clear
4:55 AM 32.0 °F - 30.2 °F 93% 29.96 in 10.0 mi Calm Calm - N/A   Clear
5:15 AM 30.2 °F - 28.4 °F 93% 29.98 in 7.0 mi Calm Calm - N/A   Clear
5:35 AM 30.2 °F - 28.4 °F 93% 29.98 in 7.0 mi Calm Calm - N/A   Clear
5:55 AM 30.2 °F - 30.2 °F 100% 30.00 in 10.0 mi Calm Calm - N/A   Clear
6:15 AM 30.2 °F - 30.2 °F 100% 30.01 in 10.0 mi Calm Calm - N/A   Clear
6:35 AM 30.2 °F 24.3 °F 28.4 °F 93% 30.01 in 10.0 mi SW 5.8 mph - N/A   Clear
6:55 AM 30.2 °F - 28.4 °F 93% 30.01 in 10.0 mi Calm Calm - N/A   Clear
7:15 AM 30.2 °F - 28.4 °F 93% 30.03 in 7.0 mi Calm Calm - N/A   Clear
7:35 AM 30.2 °F - 28.4 °F 93% 30.03 in 5.0 mi Calm Calm - 0.01 in   Clear
7:55 AM 32.0 °F - 30.2 °F 93% 30.04 in 7.0 mi Calm Calm - 0.01 in   Clear
8:15 AM 32.0 °F - 30.2 °F 93% 30.04 in 5.0 mi Calm Calm - N/A   Clear
8:35 AM 32.0 °F - 32.0 °F 100% 30.04 in 7.0 mi Calm Calm - N/A   Clear
8:55 AM 33.8 °F - 32.0 °F 93% 30.04 in 10.0 mi Calm Calm - N/A   Clear
9:15 AM 35.6 °F 30.7 °F 32.0 °F 87% 30.04 in 10.0 mi South 5.8 mph - N/A   Clear
9:35 AM 35.6 °F 28.6 °F 32.0 °F 87% 30.04 in 10.0 mi South 9.2 mph - N/A   Clear
9:55 AM 37.4 °F 30.3 °F 32.0 °F 81% 30.04 in 10.0 mi South 10.4 mph - N/A   Clear
10:15 AM 37.4 °F 30.3 °F 32.0 °F 81% 30.04 in 10.0 mi South 10.4 mph - N/A   Clear
10:35 AM 39.2 °F 32.5 °F 33.8 °F 81% 30.04 in 10.0 mi South 10.4 mph - N/A   Clear
10:55 AM 41.0 °F 34.3 °F 33.8 °F 76% 30.02 in 10.0 mi South 11.5 mph - N/A   Clear
11:15 AM 41.0 °F 33.1 °F 33.8 °F 76% 30.00 in 10.0 mi South 15.0 mph - N/A   Clear
11:35 AM 41.0 °F 33.9 °F 33.8 °F 76% 29.98 in 10.0 mi South 12.7 mph 18.4 mph N/A   Clear
11:55 AM 41.0 °F 32.8 °F 33.8 °F 76% 29.97 in 10.0 mi South 16.1 mph - N/A   Clear
12:15 PM 42.8 °F 36.2 °F 33.8 °F 70% 29.96 in 10.0 mi South 12.7 mph - N/A   Clear
12:35 PM 44.6 °F 37.4 °F 33.8 °F 66% 29.96 in 10.0 mi South 16.1 mph - N/A   Clear
12:55 PM 44.6 °F 36.9 °F 33.8 °F 66% 29.94 in 10.0 mi South 18.4 mph - N/A   Clear
1:15 PM 44.6 °F 37.2 °F 35.6 °F 71% 29.92 in 10.0 mi South 17.3 mph 24.2 mph 0.01 in   Clear
1:35 PM 46.4 °F 39.8 °F 33.8 °F 62% 29.93 in 10.0 mi South 16.1 mph 24.2 mph 0.01 in   Clear
1:55 PM 46.4 °F 39.5 °F 35.6 °F 66% 29.92 in 10.0 mi South 17.3 mph 25.3 mph 0.01 in   Clear
2:15 PM 46.4 °F 39.8 °F 35.6 °F 66% 29.90 in 10.0 mi South 16.1 mph - N/A   Clear
2:35 PM 46.4 °F 39.5 °F 35.6 °F 66% 29.91 in 10.0 mi South 17.3 mph - N/A   Clear
2:55 PM 48.2 °F - 35.6 °F 62% 29.90 in 10.0 mi South 13.8 mph 19.6 mph N/A   Clear
3:15 PM 48.2 °F - 35.6 °F 62% 29.89 in 10.0 mi SSE 10.4 mph - N/A   Clear
3:35 PM 48.2 °F - 35.6 °F 62% 29.90 in 10.0 mi South 13.8 mph 18.4 mph N/A   Clear
3:55 PM 46.4 °F 40.4 °F 35.6 °F 66% 29.89 in 10.0 mi SSE 13.8 mph - N/A   Clear
4:15 PM 46.4 °F 39.8 °F 33.8 °F 62% 29.89 in 10.0 mi South 16.1 mph - N/A   Clear
4:35 PM 46.4 °F 40.4 °F 33.8 °F 62% 29.88 in 10.0 mi SSE 13.8 mph 21.9 mph N/A   Clear
4:55 PM 44.6 °F 38.4 °F 33.8 °F 66% 29.89 in 10.0 mi SSE 12.7 mph - N/A   Clear
5:15 PM 42.8 °F 36.6 °F 33.8 °F 70% 29.89 in 10.0 mi SSE 11.5 mph - N/A   Clear
5:35 PM 42.8 °F 36.6 °F 33.8 °F 70% 29.87 in 10.0 mi SE 11.5 mph - N/A   Clear
5:55 PM 42.8 °F 35.4 °F 33.8 °F 70% 29.86 in 10.0 mi SSE 15.0 mph - N/A   Clear
6:15 PM 44.6 °F 37.4 °F 33.8 °F 66% 29.85 in 10.0 mi SSE 16.1 mph - N/A   Clear
6:35 PM 44.6 °F 37.8 °F 33.8 °F 66% 29.85 in 10.0 mi SSE 15.0 mph - N/A   Clear
6:55 PM 44.6 °F 37.4 °F 32.0 °F 61% 29.84 in 10.0 mi South 16.1 mph 21.9 mph N/A   Clear
7:15 PM 44.6 °F 36.6 °F 32.0 °F 61% 29.84 in 10.0 mi South 19.6 mph 26.5 mph N/A   Clear
7:35 PM 42.8 °F 34.8 °F 32.0 °F 66% 29.83 in 10.0 mi South 17.3 mph 23.0 mph N/A   Clear
7:55 PM 44.6 °F 37.8 °F 32.0 °F 61% 29.83 in 10.0 mi South 15.0 mph - N/A   Clear
8:15 PM 44.6 °F 38.1 °F 32.0 °F 61% 29.83 in 10.0 mi South 13.8 mph 21.9 mph N/A   Clear
8:35 PM 44.6 °F 38.1 °F 32.0 °F 61% 29.83 in 10.0 mi South 13.8 mph - N/A   Clear
8:55 PM 42.8 °F 36.2 °F 32.0 °F 66% 29.83 in 10.0 mi South 12.7 mph - N/A   Clear
9:15 PM 42.8 °F 36.2 °F 32.0 °F 66% 29.83 in 10.0 mi South 12.7 mph - N/A   Clear
9:35 PM 42.8 °F 35.8 °F 32.0 °F 66% 29.84 in 10.0 mi South 13.8 mph - N/A   Clear
9:55 PM 44.6 °F 38.1 °F 32.0 °F 61% 29.84 in 10.0 mi South 13.8 mph - N/A   Clear
10:15 PM 44.6 °F 37.4 °F 32.0 °F 61% 29.84 in 10.0 mi South 16.1 mph 24.2 mph N/A   Clear
10:35 PM 42.8 °F 35.4 °F 32.0 °F 66% 29.83 in 10.0 mi South 15.0 mph - N/A   Clear
10:55 PM 42.8 °F 36.6 °F 32.0 °F 66% 29.83 in 10.0 mi South 11.5 mph - N/A   Clear
11:15 PM 42.8 °F 36.6 °F 32.0 °F 66% 29.82 in 10.0 mi South 11.5 mph - N/A   Clear
11:35 PM 41.0 °F 34.7 °F 32.0 °F 70% 29.82 in 10.0 mi South 10.4 mph - N/A   Clear
11:55 PM 42.8 °F 37.0 °F 32.0 °F 66% 29.82 in 10.0 mi South 10.4 mph - N/A   Clear